[Iaude] MPEC U232: 2023 UQ7 [a=2.49,e=0.59,i=4.6,H=25.1]
    mpec at marsden.cfa.harvard.edu 
    mpec at marsden.cfa.harvard.edu
       
    Tue Oct 24 17:37:53 EDT 2023
    
    
  
M.P.E.C. 2023-U232                             Issued 2023 October 24, 21:36 UT
     The Minor Planet Electronic Circulars contain information on unusual
         minor planets, routine data on comets and natural satellites,
         and occasional editorial announcements.  They are published
    on behalf of Division F of the International Astronomical Union by the
          Minor Planet Center, Smithsonian Astrophysical Observatory,
                          Cambridge, MA 02138, U.S.A.
			  
             Prepared using the Tamkin Foundation Computer Network
                              MPC at CFA.HARVARD.EDU
            URL https://www.minorplanetcenter.net/    ISSN 1523-6714
                                    2023 UQ7                                    
Observations:
     K23U07Q* C2023 10 22.47011903 29 49.072-07 09 26.42         19.86wXEU232F51
     K23U07Q  C2023 10 22.48701903 30 02.790-07 07 46.57         19.79wXEU232F51
     K23U07Q  C2023 10 22.50945803 30 21.026-07 05 33.40         20.13wXEU232F51
     K23U07Q  C2023 10 22.59094603 31 27.758-06 57 25.05               VEU232F51
     K23U07Q  C2023 10 22.59292103 31 29.424-06 57 12.81         20.63GVEU232F51
     K23U07Q  C2023 10 22.59373603 31 30.118-06 57 07.53         20.79GVEU232F51
     K23U07Q hC2023 10 22.98548903 37 23.71 -06 18 03.3          20.2 GVEU232L01
     K23U07Q hC2023 10 22.98746503 37 25.42 -06 17 51.0          20.1 GVEU232L01
     K23U07Q hC2023 10 22.98944103 37 27.05 -06 17 39.0          20.3 GVEU232L01
     K23U07Q pC2023 10 22.99080003 37 28.29 -06 17 29.5          20.5 GVEU232L01
     K23U07Q KC2023 10 23.29324403 42 01.38 -05 45 30.4          20.2 VuEU232H21
     K23U07Q KC2023 10 23.29518403 42 03.06 -05 45 17.7          20.3 VuEU232H21
     K23U07Q KC2023 10 23.29712303 42 04.73 -05 45 05.3          20.2 VuEU232H21
     K23U07Q KC2023 10 23.29906303 42 06.43 -05 44 53.0          20.4 VuEU232H21
     K23U07Q KC2023 10 24.28889303 57 37.94 -03 54 25.2          21.0 VuEU232H21
     K23U07Q KC2023 10 24.29170603 57 40.52 -03 54 05.9          21.5 VuEU232H21
     K23U07Q KC2023 10 24.29451903 57 43.09 -03 53 46.5          21.1 VuEU232H21
     K23U07Q KC2023 10 24.29808203 57 46.39 -03 53 21.6          20.9 VuEU232H21
Observer details:
F51 Pan-STARRS 1, Haleakala.  Observers J. Bulger, T. Lowe, P. Minguez, A.
    Schultz, I. Smith.  Measurers K. Chambers, T. de Boer, J. Fairlamb, H.
    Gao, M. Huber, C.-C. Lin, E. Magnier, Y. Ramanjooloo, R. Wainscoat, R.
    Weryk.  1.8-m Ritchey-Chretien + CCD.
H21 Astronomical Research Observatory, Westfield.  Observer R. Holmes.
    Measurers T. Linder, R. Holmes, L. Horn.  0.81-m f/4.0 astrograph + CCD.
L01 Visnjan Observatory, Tican.  Observer K. Korlevic.  1.0-m f/2.9 reflector
    + CCD.
Orbital elements:
2023 UQ7                                                 Earth MOID = 0.0277 AU
Epoch 2023 Sept. 13.0 TT = JDT 2460200.5                Bell                    
M 345.12796              (2000.0)            P               Q                  
n   0.25009788     Peri.    4.96439     +0.59937941     -0.79819128             
a   2.4949550      Node    48.22527     +0.73160146     +0.51569562             
e   0.5922739      Incl.    4.63708     +0.32481322     +0.31136587             
P   3.94           H   25.14          G   0.15           U   9                  
Residuals in seconds of arc
231022 F51  2.7+  1.4+    231022 L01  0.3-  0.1+    231023 H21  0.0   0.3-
231022 F51  2.1+  1.3+    231022 L01  0.0   0.1+    231023 H21  0.2+  0.4-
231022 F51  1.4+  1.3+    231022 L01  0.9-  0.1-    231024 H21  0.1+  0.4+
231022 F51  1.3-  0.9+    231022 L01  0.2+  0.9+    231024 H21  0.0   0.1+
231022 F51  0.9-  1.2+    231023 H21  0.2+  0.5-    231024 H21  0.3-  0.1-
231022 F51  0.6-  1.6+    231023 H21  0.2+  0.3-    231024 H21  0.1+  0.0
Ephemeris:
2023 UQ7                 a,e,i = 2.49, 0.59, 5                   q = 1.0173
Date    TT    R. A. (2000) Decl.     Delta      r    Elong.  Phase     V
2023 09 24    00 41 56.7 -18 20 31   0.1993  1.1916   159.0    17.6    22.9
...
2023 10 09    01 28 53.8 -17 38 55   0.1166  1.1059   155.0    22.4    21.8
...
2023 10 17    02 24 43.0 -13 46 05   0.08141 1.0700   152.9    25.1    21.0
...
2023 10 23    03 37 34.3 -06 14 49   0.06260 1.0486   147.6    30.5    20.5
2023 10 24    03 52 58.8 -04 26 02   0.06048 1.0455   145.9    32.3    20.5
2023 10 25    04 09 14.8 -02 28 07   0.05873 1.0426   143.8    34.3    20.5
...
2023 10 31    05 56 06.2 +10 35 29   0.05714 1.0282   126.8    50.6    20.9
...
2023 11 08    07 51 56.9 +21 52 01   0.07533 1.0182   109.2    66.8    21.9
...
2023 11 23    09 26 36.6 +27 34 23   0.1310  1.0283   104.5    68.4    23.2
M. P. C. Staff               (C) Copyright 2023 MPC           M.P.E.C. 2023-U232
    
    
More information about the Iaude
mailing list